Location: Ingoldesthorpe
(52.8667°N, 0.5167°E)
Time: 21:46:35
(UTC+00:00)

Cosmos 1356 Rocket - Pass Details

Date: 19 May 2025
Orbit: 517 x 566 km, 81.2° (Epoch: 18 June)

Event Time Altitude Azimuth Distance (km) Brightness Sun altitude
Exits shadow 22:03:58 - 206° (SSW) 2,026 5.8 -13.3°
Reaches altitude 10° 22:04:22 10° 207° (SSW) 1,861 5.7 -13.3°
Maximum altitude 22:08:25 57° 286° (WNW) 670 3.9 -13.6°
Drops below altitude 10° 22:12:29 10° 6° (N) 1,859 7.0 -13.9°
Sets 22:14:41 0° 11° (N) 2,752 7.8 -14.0°
